CW0762 Weather Reports


Display with metric or nautical units.
time (UTC)temp
F
wind
direction
speed
MPH
gust
MPH
rain 1hr
in
rain 24hr
in
rain mn
in
humidity
%
barometer
mb
20260504044538 69 63 1.0 5.0 0.00 0.00 0.00 52 1016.5
20260504043042 69 49 0.0 2.0 0.00 0.00 0.00 52 1016.7
20260504041536 70 47 0.0 4.0 0.00 0.00 0.00 51 1016.7
20260504040037 70 120 0.0 4.0 0.00 0.00 0.00 51 1016.7
20260504034536 70 123 0.0 6.0 0.00 0.00 0.00 50 1016.6
20260504033036 71 62 1.0 5.0 0.00 0.00 0.00 49 1016.6
20260504031535 71 40 0.0 5.0 0.00 0.00 0.00 48 1016.6
20260504030035 72 55 0.0 4.0 0.00 0.00 0.00 46 1016.5
20260504024535 73 52 0.0 5.0 0.00 0.00 0.00 44 1016.5
20260504023037 73 57 1.0 5.0 0.00 0.00 0.00 42 1016.4
20260504021533 73 91 0.0 5.0 0.00 0.00 0.00 42 1016.3
20260504020044 74 60 1.0 7.0 0.00 0.00 0.00 41 1016.3
20260504014543 74 47 1.0 6.0 0.00 0.00 0.00 40 1016.2
20260504013042 75 46 0.0 8.0 0.00 0.00 0.00 39 1016.1
20260504011534 76 57 1.0 7.0 0.00 0.00 0.00 39 1016.0
20260504010032 76 68 0.0 5.0 0.00 0.00 0.00 38 1016.0
20260504004536 77 55 0.0 5.0 0.00 0.00 0.00 37 1015.7
20260504003031 78 46 1.0 6.0 0.00 0.00 0.00 37 1015.9
20260504001534 79 83 0.0 6.0 0.00 0.00 0.00 35 1015.9
20260504000028 79 49 3.0 8.0 0.00 0.00 0.00 34 1016.0
20260503234527 80 134 2.0 9.0 0.00 0.00 0.00 35 1016.2
20260503233026 80 121 2.0 7.0 0.00 0.00 0.00 33 1016.3
20260503231524 81 53 2.0 6.0 0.00 0.00 0.00 32 1016.4
20260503230025 81 69 2.0 11.0 0.00 0.00 0.00 32 1016.4
20260503224523 81 51 2.0 12.0 0.00 0.00 0.00 32 1016.5
20260503223023 82 103 1.0 11.0 0.00 0.00 0.00 32 1016.5
20260503221521 83 104 1.0 9.0 0.00 0.00 0.00 31 1016.7
20260503220019 83 46 2.0 9.0 0.00 0.00 0.00 31 1017.0
20260503214519 83 115 2.0 8.0 0.00 0.00 0.00 30 1017.1
20260503213016 83 113 2.0 8.0 0.00 0.00 0.00 30 1017.3
20260503211514 83 64 1.0 11.0 0.00 0.00 0.00 31 1017.5
20260503210013 84 134 4.0 10.0 0.00 0.00 0.00 29 1017.7
20260503204509 83 27 1.0 7.0 0.00 0.00 0.00 31 1018.1
20260503203020 83 12 2.0 10.0 0.00 0.00 0.00 31 1018.4
20260503201505 83 121 4.0 10.0 0.00 0.00 0.00 31 1018.7
20260503200003 83 123 3.0 9.0 0.00 0.00 0.00 30 1019.0
20260503194601 83 125 2.0 6.0 0.00 0.00 0.00 32 1019.1
20260503193058 83 141 2.0 11.0 0.00 0.00 0.00 35 1019.5
20260503191556 83 126 1.0 8.0 0.00 0.00 0.00 34 1019.7
20260503184548 81 113 3.0 10.0 0.00 0.00 0.00 35 1020.1
20260503183047 80 126 4.0 13.0 0.00 0.00 0.00 37 1020.3
20260503181553 80 113 3.0 12.0 0.00 0.00 0.00 38 1020.7
20260503180044 80 120 4.0 10.0 0.00 0.00 0.00 40 1021.0
20260503174540 80 119 1.0 7.0 0.00 0.00 0.00 41 1021.2
20260503173039 78 144 3.0 11.0 0.00 0.00 0.00 41 1021.4
20260503171536 79 122 1.0 9.0 0.00 0.00 0.00 44 1021.6
20260503081534 59 129 0.0 0.0 0.00 0.00 0.00 69 1020.9
20260503071519 59 129 0.0 4.0 0.00 0.00 0.00 70 1021.2